Regional Weather Roundup
Issued by NWS Goodland, KS

Home | Current Version | Previous Version | Text Only | Print | Product List | Glossary Off
Versions: 1 2 3 4 5 6 7 8 9 10 11 12 13 14 15 16 17 18 19 20 21 22 23 24 25 26 27 28 29 30 31 32 33 34 35 36 37 38 39 40 41 42 43 44 45 46 47 48 49 50

000
ASUS43 KGLD 302208
RWRGLD

GOODLAND FORECAST AREA HOURLY WEATHER ROUNDUP
NATIONAL WEATHER SERVICE GOODLAND KS
400 PM MDT SUN APR 30 2017

...OFFICIAL OBSERVATIONS...

CITY           SKY/WX    TMP DP  RH WIND       PRES   REMARKS
GOODLAND KS    CLOUDY    35  31  85 N14       29.71F
HILL CITY KS   MIX PCPN  35  34  96 N23G33    29.65R FOG
IMPERIAL NEB   CLOUDY    47  21  35 N29G36    29.75F
MCCOOK NEB     LGT SNOW  34  32  92 N28G41    29.71R
AKRON CO       CLOUDY    54  16  22 N33G46    29.80F
BURLINGTON CO  NOT AVBL
LIMON CO       SUNNY     54  20  26 N38G48    29.79F
$$

...UNOFFICIAL OBSERVATIONS...

CITY           SKY/WX    TMP DP  RH WIND       PRES   REMARKS
LENORA KS        N/A     33  32  96 MISG        N/A
TRENTON NEB      N/A     32  32 100 N14         N/A
KIT CARSON CO    N/A     54  22  28 MISG        N/A
YUMA CO        FAIR      52  23  32 N28G38    29.77F
$$




USA.gov is the U.S. government's official web portal to all federal, state and local government web resources and services.